Date String (YYYY-MM-DD hh:mm:ss) UTC,Instrument flags,Ambient pressure (hPa),Sample flow (lpm),Bypass flow (lpm),Sample temperature (°C),Ambient temperature (°C),ASC tube jacket temperature (°C),LED temperature (°C),Box temperature (°C),Sample RH (%),Span deviation,Mass concentration (μg/m³),Mass concentration (μg/m³),Mass concentration (μg/m³)
DateTimeUTC,F1_M11,P_M11,Q1_M11,Q2_M11,T1_M11,T2_M11,T3_M11,T4_M11,T5_M11,U1_M11,ZSPAN_M11,X0_M11,X2_M11,X1_M11
2021-11-02 11:00:00,,0832.1,4.99,0.00,23.3,22.5,00.0,32.4,25.1,20.7,-000.4,0014.15,0009.96,0008.92
2021-11-02 11:01:00,,0832.1,5.00,0.00,23.3,22.5,00.0,32.4,25.1,20.7,-000.4,0014.10,0009.93,0008.87
2021-11-02 11:02:00,,0832.1,5.01,0.00,23.3,22.5,00.0,32.4,25.1,20.7,-000.1,0013.99,0009.90,0008.85
2021-11-02 11:03:00,,0832.1,5.00,0.00,23.3,22.4,00.0,32.4,25.1,20.7,-000.2,0014.12,0009.93,0008.84
2021-11-02 11:04:00,,0832.1,5.00,0.00,23.3,22.4,00.0,32.3,25.1,20.7,-000.1,0014.49,0009.96,0008.82
2021-11-02 11:05:00,,0832.1,4.99,0.00,23.3,22.4,00.0,32.3,25.1,20.7,-000.5,0014.16,0009.94,0008.79
2021-11-02 11:06:00,,0832.1,5.01,0.00,23.3,22.4,00.0,32.3,25.0,20.7,-000.7,0014.25,0009.96,0008.80
2021-11-02 11:07:00,,0832.1,5.02,0.00,23.3,22.4,00.0,32.3,25.1,20.7,-000.4,0014.68,0009.94,0008.77
2021-11-02 11:08:00,,0832.1,4.99,0.00,23.3,22.4,00.0,32.3,25.0,20.8,-000.2,0015.02,0009.88,0008.71
2021-11-02 11:09:00,,0832.1,4.99,0.00,23.3,22.4,00.0,32.3,25.0,20.8,0000.0,0014.99,0009.80,0008.65
2021-11-02 11:10:00,,0832.0,5.01,0.00,23.2,22.4,00.0,32.3,25.0,20.9,0000.3,0015.25,0009.75,0008.57
2021-11-02 11:11:00,,0831.9,4.99,0.00,23.2,22.4,00.0,32.3,25.0,20.9,0000.5,0015.08,0009.64,0008.48
2021-11-02 11:12:00,,0832.0,5.00,0.00,23.2,22.4,00.0,32.3,25.0,20.8,0000.6,0014.76,0009.45,0008.34
2021-11-02 11:13:00,,0832.0,4.99,0.00,23.2,22.4,00.0,32.3,25.0,20.8,0000.6,0014.48,0009.19,0008.12
2021-11-02 11:14:00,,0832.0,5.00,0.00,23.2,22.3,00.0,32.3,25.0,20.8,0000.9,0013.99,0008.89,0007.89
2021-11-02 11:15:00,,0832.0,5.00,0.00,23.2,22.3,00.0,32.3,25.0,20.8,0000.7,0013.25,0008.62,0007.69
2021-11-02 11:16:00,,0832.0,5.01,0.00,23.2,22.3,00.0,32.3,25.0,20.8,0000.8,0013.09,0008.42,0007.50
2021-11-02 11:17:00,,0832.0,5.00,0.00,23.2,22.3,00.0,32.3,25.0,20.8,0000.0,0012.60,0008.13,0007.28
2021-11-02 11:18:00,,0832.0,5.01,0.00,23.2,22.3,00.0,32.3,25.0,20.8,0000.0,0011.70,0007.86,0007.09
2021-11-02 11:19:00,,0832.0,4.99,0.00,23.2,22.3,00.0,32.2,24.9,20.8,0000.0,0011.05,0007.66,0006.92
2021-11-02 11:20:00,,0832.0,4.99,0.00,23.2,22.3,00.0,32.2,24.9,20.7,0000.0,0010.54,0007.43,0006.78
2021-11-02 11:21:00,,0832.0,5.02,0.00,23.2,22.3,00.0,32.2,24.9,20.7,0000.0,0009.89,0007.19,0006.63
2021-11-02 11:22:00,,0832.0,5.00,0.00,23.1,22.3,00.0,32.2,24.9,20.7,0000.0,0009.47,0006.94,0006.48
2021-11-02 11:23:00,,0832.0,5.00,0.00,23.1,22.3,00.0,32.2,24.9,20.7,0000.0,0009.32,0006.82,0006.37
2021-11-02 11:24:00,,0831.9,5.00,0.00,23.1,22.3,00.0,32.2,24.9,20.7,0000.0,0009.19,0006.76,0006.34
2021-11-02 11:25:00,,0831.9,5.00,0.00,23.1,22.3,00.0,32.2,24.9,20.7,0000.0,0009.11,0006.72,0006.32
2021-11-02 11:26:00,,0831.9,4.99,0.00,23.1,22.2,00.0,32.2,24.9,20.7,0000.0,0009.02,0006.68,0006.31
2021-11-02 11:27:00,,0831.9,5.01,0.00,23.1,22.2,00.0,32.2,24.9,20.7,0000.0,0009.05,0006.64,0006.31
2021-11-02 11:28:00,,0831.9,4.99,0.00,23.1,22.2,00.0,32.2,24.9,20.7,0000.0,0009.03,0006.65,0006.32
2021-11-02 11:29:00,,0831.8,5.01,0.00,23.1,22.2,00.0,32.2,24.9,20.7,0000.0,0009.01,0006.65,0006.32
2021-11-02 11:30:00,,0831.7,5.00,0.00,23.1,22.2,00.0,32.2,24.9,20.7,0000.0,0008.90,0006.60,0006.31
2021-11-02 11:31:00,,0831.7,5.00,0.00,23.0,22.2,00.0,32.1,24.9,20.7,0000.0,0008.85,0006.58,0006.31
2021-11-02 11:32:00,,0831.7,5.01,0.00,23.1,22.3,00.0,32.1,24.9,20.7,0000.0,0008.98,0006.61,0006.33
2021-11-02 11:33:00,,0831.7,5.01,0.00,23.1,22.3,00.0,32.1,24.9,20.6,0000.0,0009.31,0006.68,0006.35
2021-11-02 11:34:00,,0831.7,4.99,0.00,23.1,22.3,00.0,32.1,24.9,20.6,0000.0,0009.36,0006.72,0006.38
2021-11-02 11:35:00,,0831.7,5.00,0.00,23.1,22.3,00.0,32.1,24.9,20.6,0000.0,0009.35,0006.74,0006.40
2021-11-02 11:36:00,,0831.7,4.99,0.00,23.1,22.3,00.0,32.1,24.9,20.6,0000.0,0009.38,0006.76,0006.41
2021-11-02 11:37:00,,0831.7,5.01,0.00,23.1,22.3,00.0,32.1,24.9,20.6,0000.0,0009.40,0006.80,0006.42
2021-11-02 11:38:00,,0831.7,5.00,0.00,23.1,22.3,00.0,32.1,24.9,20.6,0000.0,0009.34,0006.83,0006.43
2021-11-02 11:39:00,,0831.7,4.99,0.00,23.1,22.3,00.0,32.1,24.9,20.6,0000.0,0009.36,0006.83,0006.43
2021-11-02 11:40:00,,0831.7,5.01,0.00,23.1,22.3,00.0,32.1,24.9,20.5,0000.0,0009.45,0006.87,0006.44
2021-11-02 11:41:00,,0831.7,5.01,0.00,23.1,22.3,00.0,32.1,24.9,20.5,0000.0,0009.52,0006.93,0006.47
2021-11-02 11:42:00,,0831.7,4.99,0.00,23.0,22.3,00.0,32.1,24.9,20.5,0000.0,0009.60,0006.94,0006.48
2021-11-02 11:43:00,,0831.8,5.01,0.00,23.1,22.3,00.0,32.1,24.9,20.5,0000.0,0009.58,0006.95,0006.48
2021-11-02 11:44:00,,0831.7,4.98,0.00,23.1,22.3,00.0,32.1,24.9,20.5,0000.0,0009.32,0006.92,0006.47
2021-11-02 11:45:00,,0831.7,5.01,0.00,23.1,22.3,00.0,32.1,24.9,20.5,0000.0,0009.33,0006.91,0006.46
2021-11-02 11:46:00,,0831.7,5.00,0.00,23.1,22.3,00.0,32.1,24.9,20.5,0000.0,0009.40,0006.93,0006.46
2021-11-02 11:47:00,,0831.7,5.01,0.00,23.1,22.3,00.0,32.1,24.9,20.4,0000.0,0009.43,0006.95,0006.46
2021-11-02 11:48:00,,0831.7,5.01,0.00,23.1,22.3,00.0,32.1,24.9,20.4,0000.0,0009.34,0006.95,0006.47
2021-11-02 11:49:00,,0831.7,4.99,0.00,23.1,22.3,00.0,32.1,24.9,20.4,0000.0,0009.32,0006.97,0006.48
2021-11-02 11:50:00,,0831.7,4.99,0.00,23.1,22.3,00.0,32.1,24.9,20.4,0000.0,0009.33,0006.99,0006.50
2021-11-02 11:51:00,,0831.7,5.01,0.00,23.1,22.3,00.0,32.1,24.9,20.4,0000.0,0009.63,0006.98,0006.49
2021-11-02 11:52:00,,0831.7,5.00,0.00,23.1,22.3,00.0,32.1,24.9,20.5,0000.0,0009.64,0006.97,0006.50
2021-11-02 11:53:00,,0831.7,4.99,0.00,23.1,22.3,00.0,32.1,24.9,20.5,0000.0,0009.57,0006.96,0006.49
2021-11-02 11:54:00,,0831.7,4.99,0.00,23.1,22.3,00.0,32.1,24.9,20.5,0000.0,0009.41,0006.92,0006.48
2021-11-02 11:55:00,,0831.7,5.00,0.00,23.1,22.3,00.0,32.1,24.9,20.5,0000.0,0009.44,0006.92,0006.49
2021-11-02 11:56:00,,0831.8,5.02,0.00,23.1,22.3,00.0,32.1,24.9,20.6,0000.0,0009.36,0006.89,0006.49
2021-11-02 11:57:00,,0831.8,5.00,0.00,23.1,22.3,00.0,32.1,24.9,20.6,0000.0,0009.31,0006.89,0006.51
2021-11-02 11:58:00,,0831.7,5.00,0.00,23.1,22.3,00.0,32.1,24.9,20.6,0000.0,0009.37,0006.90,0006.55
2021-11-02 11:59:00,,0831.7,5.00,0.00,23.1,22.3,00.0,32.1,24.9,20.5,0000.0,0009.45,0006.95,0006.61
